Location: Unspecified
(42.3650°N, 71.1030°W)
Time: 19:44:39
(UTC+00:00)

Vanguard 2 - Pass Details

Date: 25 June 2024
Orbit: 552 x 2913 km, 32.9° (Epoch: 22 July)

Event Time Altitude Azimuth Distance (km) Brightness Sun altitude
Exits shadow 08:24:03 - 211° (SSW) 4,679 10.9 -7.4°
Reaches altitude 10° 08:25:23 10° 207° (SSW) 4,417 10.8 -7.2°
Maximum altitude 08:36:48 37° 147° (SSE) 3,516 10.8 -5.6°
Drops below altitude 10° 08:51:37 10° 89° (E) 5,728 12.9 -3.5°
Sets 08:56:39 0° 82° (E) 6,751 13.6 -2.7°
